Location: Santa Fe
(35.6870°N, 105.9370°W)
Time: 01:59:01
(UTC-07:00)

Amateur Radio Satellites - All Passes

Search period start: 25 February 2017 01:29
Search period end: 26 February 2017 01:29
Location: Santa Fe, 35.6870°N, 105.9370°W

Satellite Date Start Highest point End Downlink Frequencies (MHz)
Time Altitude Azimuth
RS-15 25 Feb 01:38:00 01:49:48 48° 50° (NE) 02:01:04 29.354- 29.394
Oscar 19 25 Feb 01:51:57 01:57:02 66° 286° (WNW) 02:02:06 437.125/150
SRMSAT 25 Feb 01:52:53 01:56:36 17° 182° (S) 02:00:20 437.500
AO-7 25 Feb 01:54:37 01:56:30 11° 90° (E) 01:58:23 .
ITUPSAT 1 25 Feb 02:19:02 02:23:49 74° 258° (WSW) 02:28:39 437.325
ITAMSAT 1 25 Feb 02:25:29 02:29:33 23° 95° (E) 02:33:35 435.822/435.867
BEESAT 25 Feb 02:26:00 02:30:43 60° 259° (W) 02:35:27 436.000
Gurwin Techsat 1B 25 Feb 02:33:34 02:38:42 49° 288° (WNW) 02:43:48 435.225
PCSat 25 Feb 02:39:53 02:44:29 29° 252° (WSW) 02:49:04 145.827
MOZHAYETS 4 25 Feb 02:50:21 02:54:59 83° 79° (E) 02:59:39
KKS-1 25 Feb 03:24:21 03:28:33 47° 73° (ENE) 03:32:49 437.445
AO-7 25 Feb 03:42:04 03:50:24 74° 106° (ESE) 03:58:40 .
SRMSAT 25 Feb 03:42:41 03:45:00 12° 192° (SSW) 03:47:20 437.500
CUBESAT XI-V 25 Feb 03:48:53 03:53:24 51° 74° (ENE) 03:57:56 437.345
RS-15 25 Feb 03:50:49 04:02:19 51° 251° (WSW) 04:13:20 29.354- 29.394
STARS 25 Feb 03:59:21 04:03:33 50° 73° (ENE) 04:07:48 437.465
ITAMSAT 1 25 Feb 04:04:16 04:09:04 38° 290° (WNW) 04:13:51 435.822/435.867
AO-85 25 Feb 04:12:10 04:16:50 79° 301° (WNW) 04:21:09 145.980
M-CUBED/EXP-1 PRIME 25 Feb 04:34:00 04:37:18 74° 254° (WSW) 04:40:33 437.505
KKS-1 25 Feb 05:03:19 05:05:20 13° 267° (W) 05:07:22 437.445
CUTE-I 25 Feb 05:11:27 05:14:25 15° 92° (E) 05:17:23 437.470
KAITUO 1B 25 Feb 05:27:12 05:29:25 15° 94° (E) 05:31:37 145.475/437.950
CUBESAT XI-V 25 Feb 05:28:51 05:31:02 13° 268° (W) 05:33:11 437.345
XW-2F 25 Feb 05:30:55 05:33:49 20° 95° (E) 05:36:40 145.980 - 146.000
BEESAT 3 25 Feb 05:32:29 05:36:04 37° 114° (ESE) 05:39:43 437.485
XW-2D 25 Feb 05:35:09 05:38:21 25° 96° (E) 05:41:29 145.860 - 145.880
AO-7 25 Feb 05:36:16 05:42:19 23° 303° (WNW) 05:48:23 .
STARS 25 Feb 05:38:32 05:40:09 12° 268° (W) 05:41:46 437.465
XW-2B 25 Feb 05:40:06 05:43:24 28° 97° (E) 05:46:40 145.730 - 145.750
STRAND 1 25 Feb 05:45:07 05:49:08 24° 67° (ENE) 05:53:10 437.568
DOVE 4 25 Feb 05:47:33 05:52:08 45° 99° (E) 05:56:57 437.250
XW-2C 25 Feb 05:48:31 05:52:05 36° 98° (E) 05:55:36 145.795 - 145.815
NUDT-PHONESAT 25 Feb 06:01:16 06:04:52 42° 99° (E) 06:08:25 437.300
LilacSat-2 25 Feb 06:04:54 06:08:44 65° 101° (E) 06:12:30 437.200
BEESAT 2 25 Feb 06:10:07 06:13:46 39° 114° (ESE) 06:17:30 435.950
Tancredo 1 25 Feb 06:21:08 06:22:43 13° 127° (SE) 06:24:20 437.200
CUTE 1.7 + AOD 2 25 Feb 06:29:55 06:30:59 11° 91° (E) 06:32:04 437.475
HO-68 25 Feb 06:31:42 06:36:52 21° 94° (E) 06:42:01 435.675
CUTE-I 25 Feb 06:49:30 06:54:47 59° 287° (WNW) 07:00:03 437.470
KAITUO 1B 25 Feb 07:00:13 07:03:28 28° 288° (WNW) 07:06:42 145.475/437.950
SO-50 25 Feb 07:03:41 07:08:07 56° 58° (ENE) 07:12:29 436.795
XW-2F 25 Feb 07:04:54 07:07:50 21° 289° (WNW) 07:10:46 145.980 - 146.000
XW-2D 25 Feb 07:09:41 07:12:20 18° 290° (WNW) 07:14:58 145.860 - 145.880
BEESAT 3 25 Feb 07:11:14 07:13:48 17° 310° (NW) 07:16:24 437.485
XW-2B 25 Feb 07:14:55 07:17:21 16° 291° (WNW) 07:19:46 145.730 - 145.750
AAUSAT CUBESAT 2 25 Feb 07:16:58 07:18:29 12° 92° (E) 07:20:00 437.432
XW-2A 25 Feb 07:17:22 07:20:50 74° 101° (E) 07:24:16 145.665 - 145.685
UWE-3 25 Feb 07:22:49 07:25:08 14° 91° (E) 07:27:25 435.000/436.395/437.385
STRAND 1 25 Feb 07:23:22 07:28:03 36° 262° (W) 07:32:47 437.568
XW-2C 25 Feb 07:24:10 07:25:54 13° 293° (WNW) 07:27:39 145.795 - 145.815
SEEDS 25 Feb 07:25:11 07:28:59 33° 97° (E) 07:32:45 437.485
DOVE 4 25 Feb 07:26:23 07:29:30 17° 292° (WNW) 07:32:41 437.250
ISS 25 Feb 07:29:15 07:32:32 80° 138° (SE) 07:35:50 437.550
NUDT-PHONESAT 25 Feb 07:37:29 07:38:22 11° 293° (WNW) 07:39:15 437.300
ZACube-1 25 Feb 07:44:22 07:46:31 13° 91° (E) 07:48:40 437.345
BEESAT 2 25 Feb 07:49:09 07:51:42 16° 311° (NW) 07:54:17 435.950
O/OREOS (USA 219) 25 Feb 07:49:39 07:53:16 22° 62° (ENE) 07:56:52 437.305
Tancredo 1 25 Feb 07:55:31 07:58:41 47° 321° (NW) 08:01:51 437.200
CUTE 1.7 + AOD 2 25 Feb 08:03:00 08:07:05 50° 286° (WNW) 08:11:08 437.475
HO-68 25 Feb 08:17:57 08:24:59 63° 289° (WNW) 08:32:00 435.675
PRISM 25 Feb 08:18:29 08:22:12 35° 72° (ENE) 08:25:54 437.425
CUBEBUG 2 25 Feb 08:19:25 08:24:12 82° 282° (WNW) 08:28:54 437.445
UNISAT 6 25 Feb 08:27:07 08:30:11 18° 67° (ENE) 08:33:18 437.425
TIGRISAT 25 Feb 08:27:39 08:30:33 17° 66° (ENE) 08:33:29 435.000
AO-73 25 Feb 08:31:08 08:35:26 42° 98° (E) 08:39:38 145.935
Oscar 11 25 Feb 08:38:02 08:42:09 42° 99° (E) 08:46:14 .
YUBILEINY 25 Feb 08:43:59 08:49:09 17° 79° (E) 08:54:16 435.215
SO-50 25 Feb 08:46:13 08:48:01 12° 252° (WSW) 08:49:52 436.795
FO-29 25 Feb 08:49:14 08:54:49 25° 62° (ENE) 09:00:45 435.910
DELFI C3 25 Feb 08:50:00 08:52:24 15° 94° (E) 08:54:46 145.870
AAUSAT CUBESAT 2 25 Feb 08:50:15 08:54:09 43° 286° (WNW) 08:58:02 437.432
UWE-3 25 Feb 08:57:18 09:01:49 50° 286° (WNW) 09:06:14 435.000/436.395/437.385
SEEDS 25 Feb 09:01:44 09:04:22 17° 292° (WNW) 09:07:00 437.485
ISS 25 Feb 09:07:33 09:09:21 14° 334° (NNW) 09:11:11 437.550
ZACube-1 25 Feb 09:18:39 09:23:03 48° 286° (WNW) 09:27:20 437.345
O/OREOS (USA 219) 25 Feb 09:28:38 09:32:38 30° 257° (WSW) 09:36:39 437.305
AIST 2D 25 Feb 09:42:48 09:44:11 12° 68° (ENE) 09:45:33 435.315
POLYITAN 1 25 Feb 09:47:44 09:48:20 10° 64° (ENE) 09:48:57 437.675
QB50P2 25 Feb 09:49:37 09:51:15 12° 65° (ENE) 09:52:53 145.880/145.840
PRISM 25 Feb 09:55:13 09:57:34 15° 266° (W) 09:59:54 437.425
UNISAT 6 25 Feb 10:02:26 10:06:33 37° 262° (W) 10:10:48 437.425
TIGRISAT 25 Feb 10:02:40 10:06:51 40° 262° (W) 10:11:10 435.000
AO-73 25 Feb 10:08:31 10:11:16 16° 293° (WNW) 10:13:59 145.935
Oscar 11 25 Feb 10:15:32 10:17:53 15° 293° (WNW) 10:20:14 .
DELFI C3 25 Feb 10:23:47 10:27:14 30° 287° (WNW) 10:30:40 145.870
FO-29 25 Feb 10:32:15 10:39:07 62° 260° (W) 10:46:43 435.910
YUBILEINY 25 Feb 10:35:54 10:44:45 83° 277° (W) 10:53:36 435.215
ESTCUBE 1 25 Feb 10:36:54 10:40:00 18° 94° (E) 10:43:05 437.505/2401.250
DUCHIFAT 1 25 Feb 10:51:12 10:55:14 48° 74° (ENE) 10:59:18 145.980
EO-79 25 Feb 11:01:48 11:06:00 81° 76° (ENE) 11:10:16 145.935-145.965
VELOX 1 25 Feb 11:04:21 11:05:09 10° 92° (E) 11:05:57 145.980
LO-87 25 Feb 11:06:45 11:10:22 81° 283° (WNW) 11:13:58 145.935 - 145.965
SPROUT 25 Feb 11:12:36 11:13:09 10° 91° (E) 11:13:43 437.525
AIST 2D 25 Feb 11:13:50 11:17:03 33° 262° (W) 11:20:19 435.315
NANOSAT C BR1 25 Feb 11:18:50 11:23:00 68° 258° (WSW) 11:27:14 145.865
POLYITAN 1 25 Feb 11:19:23 11:23:33 60° 260° (W) 11:27:47 437.675
QB50P2 25 Feb 11:22:26 11:26:33 51° 260° (W) 11:30:42 145.880/145.840
Oscar 19 25 Feb 11:29:21 11:32:06 15° 64° (ENE) 11:34:50 437.125/150
50 SAT 25 Feb 11:36:39 11:38:35 14° 94° (E) 11:40:31 437.505
BUGSAT 1 25 Feb 11:48:09 11:52:10 77° 76° (ENE) 11:56:17 437.445
ESTCUBE 1 25 Feb 12:12:49 12:16:51 34° 289° (WNW) 12:20:52 437.505/2401.250
Gurwin Techsat 1B 25 Feb 12:13:14 12:17:14 22° 66° (ENE) 12:21:15 435.225
DX 1 25 Feb 12:28:58 12:33:09 44° 100° (E) 12:37:19 434.975-435.025
DUCHIFAT 1 25 Feb 12:29:49 12:31:08 11° 268° (W) 12:32:29 145.980
VELOX 1 25 Feb 12:37:34 12:41:54 58° 286° (WNW) 12:46:14 145.980
YUBILEINY 25 Feb 12:38:28 12:42:52 14° 296° (WNW) 12:47:17 435.215
UKube-1 25 Feb 12:40:59 12:45:06 42° 100° (E) 12:49:11 .
SPROUT 25 Feb 12:45:08 12:49:22 56° 285° (WNW) 12:53:34 437.525
AO-85 25 Feb 12:46:28 12:50:02 32° 56° (NE) 12:53:38 145.980
AO-7 25 Feb 12:49:52 12:54:18 16° 52° (NE) 12:58:42 .
Oscar 19 25 Feb 13:05:46 13:10:51 61° 258° (WSW) 13:15:57 437.125/150
50 SAT 25 Feb 13:08:49 13:11:42 25° 288° (WNW) 13:14:33 437.505
ITAMSAT 1 25 Feb 13:40:37 13:44:53 27° 68° (ENE) 13:49:11 435.822/435.867
Gurwin Techsat 1B 25 Feb 13:51:54 13:56:52 41° 261° (W) 14:01:53 435.225
BEESAT 3 25 Feb 13:53:48 13:54:56 11° 46° (NE) 13:56:05 437.485
ISS 25 Feb 13:59:40 14:02:31 26° 34° (NE) 14:05:20 437.550
DX 1 25 Feb 14:06:35 14:08:55 14° 294° (WNW) 14:11:16 434.975-435.025
UKube-1 25 Feb 14:18:20 14:20:44 15° 294° (WNW) 14:23:07 .
ITUPSAT 1 25 Feb 14:22:40 14:27:04 35° 98° (E) 14:31:24 437.325
Tancredo 1 25 Feb 14:24:51 14:27:59 47° 38° (NE) 14:31:05 437.200
AO-85 25 Feb 14:27:38 14:30:09 16° 249° (WSW) 14:32:41 145.980
BEESAT 25 Feb 14:29:02 14:33:35 42° 99° (E) 14:38:05 436.000
BEESAT 2 25 Feb 14:32:03 14:33:33 12° 46° (NE) 14:35:05 435.950
AO-7 25 Feb 14:37:22 14:45:42 78° 71° (ENE) 14:54:04 .
MOZHAYETS 4 25 Feb 14:48:57 14:52:39 24° 95° (E) 14:56:19
ITAMSAT 1 25 Feb 15:19:33 15:24:10 32° 262° (W) 15:28:51 435.822/435.867
KKS-1 25 Feb 15:20:24 15:21:48 11° 92° (E) 15:23:12 437.445
BEESAT 3 25 Feb 15:28:59 15:32:59 69° 243° (WSW) 15:36:57 437.485
PCSat 25 Feb 15:34:34 15:39:50 56° 112° (ESE) 15:45:08 145.827
ISS 25 Feb 15:36:07 15:38:55 26° 229° (SW) 15:41:41 437.550
CUBESAT XI-V 25 Feb 15:49:34 15:52:21 16° 93° (E) 15:55:07 437.345
STARS 25 Feb 15:53:45 15:55:14 11° 92° (E) 15:56:42 437.465
RS-15 25 Feb 15:57:46 16:08:07 38° 105° (ESE) 16:18:48 29.354- 29.394
ITUPSAT 1 25 Feb 16:01:03 16:04:38 21° 293° (WNW) 16:08:12 437.325
Tancredo 1 25 Feb 16:02:25 16:03:56 13° 233° (SW) 16:05:25 437.200
BEESAT 2 25 Feb 16:07:44 16:11:45 64° 243° (WSW) 16:15:43 435.950
BEESAT 25 Feb 16:07:49 16:10:59 18° 294° (WNW) 16:14:09 436.000
MOZHAYETS 4 25 Feb 16:25:50 16:29:45 28° 290° (WNW) 16:33:37
NO-84 25 Feb 16:26:26 16:29:32 86° 132° (SE) 16:32:55 435.350 FM
XW-2C 25 Feb 16:28:36 16:30:22 13° 67° (ENE) 16:32:06 145.795 - 145.815
CUTE-I 25 Feb 16:30:17 16:33:59 20° 65° (ENE) 16:37:43 437.470
AO-7 25 Feb 16:33:31 16:39:07 19° 266° (W) 16:44:45 .
NUDT-PHONESAT 25 Feb 16:39:21 16:41:16 14° 68° (ENE) 16:43:11 437.300
LilacSat-2 25 Feb 16:44:24 16:47:21 21° 70° (ENE) 16:50:20 437.200
DOVE 4 25 Feb 16:51:06 16:54:38 28° 71° (ENE) 16:58:12 437.250
KKS-1 25 Feb 16:54:16 16:58:39 55° 286° (WNW) 17:03:00 437.445
HO-68 25 Feb 17:00:41 17:03:13 12° 55° (NE) 17:05:45 435.675
PCSat 25 Feb 17:19:42 17:23:34 20° 309° (NW) 17:27:28 145.827
CUBESAT XI-V 25 Feb 17:25:33 17:29:52 41° 287° (WNW) 17:34:10 437.345
STARS 25 Feb 17:27:30 17:31:50 53° 286° (WNW) 17:36:09 437.465
KAITUO 1B 25 Feb 17:36:28 17:40:17 79° 76° (ENE) 17:44:06 145.475/437.950
XW-2F 25 Feb 17:41:44 17:45:34 72° 259° (W) 17:49:25 145.980 - 146.000
XW-2D 25 Feb 17:46:39 17:50:25 57° 260° (W) 17:54:14 145.860 - 145.880
XW-2A 25 Feb 17:47:13 17:49:12 15° 69° (ENE) 17:51:11 145.665 - 145.685
M-CUBED/EXP-1 PRIME 25 Feb 17:48:16 17:52:05 66° 289° (WNW) 17:56:13 437.505
XW-2B 25 Feb 17:51:45 17:55:29 50° 260° (W) 17:59:15 145.730 - 145.750
XW-2C 25 Feb 18:00:35 18:04:11 37° 262° (W) 18:07:48 145.795 - 145.815
NO-84 25 Feb 18:06:30 18:07:44 11° 332° (NNW) 18:08:59 435.350 FM
RS-15 25 Feb 18:08:12 18:19:56 61° 305° (NW) 18:32:10 29.354- 29.394
CUTE-I 25 Feb 18:08:31 18:13:38 47° 260° (W) 18:18:48 437.470
NUDT-PHONESAT 25 Feb 18:11:27 18:14:52 33° 262° (W) 18:18:19 437.300
SEEDS 25 Feb 18:14:47 18:17:32 17° 68° (ENE) 18:20:18 437.485
LilacSat-2 25 Feb 18:18:27 18:21:30 22° 264° (W) 18:24:34 437.200
DOVE 4 25 Feb 18:29:30 18:32:22 18° 266° (W) 18:35:15 437.250
HO-68 25 Feb 18:42:34 18:49:42 74° 72° (ENE) 18:56:51 435.675
CUTE 1.7 + AOD 2 25 Feb 18:52:02 18:56:18 75° 77° (ENE) 19:00:35 437.475
CUBEBUG 2 25 Feb 19:14:11 19:18:28 56° 75° (ENE) 19:22:57 437.445
XW-2A 25 Feb 19:18:58 19:21:44 23° 263° (W) 19:24:32 145.665 - 145.685
AO-73 25 Feb 19:23:54 19:27:25 23° 69° (ENE) 19:30:59 145.935
Oscar 11 25 Feb 19:30:15 19:33:41 23° 70° (ENE) 19:37:09 .
STRAND 1 25 Feb 19:36:15 19:41:26 84° 283° (WNW) 19:46:33 437.568
AAUSAT CUBESAT 2 25 Feb 19:36:44 19:40:53 78° 76° (ENE) 19:45:02 437.432
SEEDS 25 Feb 19:49:05 19:52:55 34° 262° (W) 19:56:48 437.485
UWE-3 25 Feb 19:50:35 19:55:01 90° 303° (WNW) 19:59:36 435.000/436.395/437.385
ZACube-1 25 Feb 20:10:40 20:15:06 89° 73° (ENE) 20:19:39 437.345
RS-15 25 Feb 20:27:18 20:35:49 21° 334° (NNW) 20:44:28 29.354- 29.394
HO-68 25 Feb 20:33:28 20:37:58 17° 267° (W) 20:42:29 435.675
YUBILEINY 25 Feb 20:50:10 20:58:21 43° 76° (ENE) 21:06:27 435.215
CUBEBUG 2 25 Feb 20:54:15 20:55:27 11° 270° (W) 20:56:40 437.445
AO-73 25 Feb 20:59:41 21:03:28 28° 264° (W) 21:07:20 145.935
JUGNU 25 Feb 21:03:32 21:06:33 14° 172° (S) 21:09:33 437.505
DELFI C3 25 Feb 21:05:30 21:09:28 86° 260° (W) 21:13:25 145.870
Oscar 11 25 Feb 21:06:03 21:09:40 26° 264° (W) 21:13:20 .
SO-50 25 Feb 21:15:00 21:19:18 36° 114° (ESE) 21:23:33 436.795
ESTCUBE 1 25 Feb 21:34:51 21:36:50 13° 65° (ENE) 21:38:50 437.505/2401.250
PRISM 25 Feb 21:37:15 21:41:20 89° 88° (E) 21:45:25 437.425
LO-87 25 Feb 21:40:35 21:43:25 23° 72° (ENE) 21:46:17 145.935 - 145.965
FO-29 25 Feb 21:46:36 21:52:41 27° 92° (E) 21:58:15 435.910
UNISAT 6 25 Feb 21:56:31 22:01:09 57° 100° (E) 22:05:42 437.425
TIGRISAT 25 Feb 21:56:41 22:01:17 53° 100° (E) 22:05:47 435.000
O/OREOS (USA 219) 25 Feb 21:58:27 22:02:39 42° 105° (ESE) 22:06:53 437.305
AIST 2D 25 Feb 22:42:15 22:44:55 20° 95° (E) 22:47:34 435.315
YUBILEINY 25 Feb 22:47:14 22:54:54 36° 274° (W) 23:02:34 435.215
RS-15 25 Feb 22:48:46 22:55:31 16° 12° (NNE) 23:02:13 29.354- 29.394
EO-79 25 Feb 22:50:30 22:53:13 16° 94° (E) 22:55:56 145.935-145.965
JUGNU 25 Feb 22:51:14 22:54:46 16° 182° (S) 22:58:18 437.505
SO-50 25 Feb 22:56:05 22:59:49 23° 309° (NW) 23:03:32 436.795
NO-84 25 Feb 23:02:46 23:05:54 20° 36° (NE) 23:09:09 435.350 FM
NANOSAT C BR1 25 Feb 23:06:31 23:09:57 23° 96° (E) 23:13:22 145.865
POLYITAN 1 25 Feb 23:07:27 23:11:05 26° 96° (E) 23:14:40 437.675
ESTCUBE 1 25 Feb 23:08:43 23:13:08 54° 260° (W) 23:17:34 437.505/2401.250
QB50P2 25 Feb 23:10:17 23:14:06 30° 97° (E) 23:17:53 145.880/145.840
LO-87 25 Feb 23:14:36 23:16:50 16° 266° (W) 23:19:05 145.935 - 145.965
DX 1 25 Feb 23:21:54 23:25:31 27° 70° (ENE) 23:29:08 434.975-435.025
FO-29 25 Feb 23:30:42 23:37:59 52° 290° (WNW) 23:44:34 435.910
VELOX 1 25 Feb 23:31:27 23:35:50 84° 74° (ENE) 23:40:14 145.980
UKube-1 25 Feb 23:32:55 23:36:24 25° 70° (ENE) 23:39:55 .
BUGSAT 1 25 Feb 23:34:09 23:36:26 14° 93° (E) 23:38:41 437.445
TIGRISAT 25 Feb 23:35:01 23:37:27 14° 295° (WNW) 23:39:52 435.000
SPROUT 25 Feb 23:35:06 23:39:20 73° 76° (ENE) 23:43:36 437.525
UNISAT 6 25 Feb 23:35:07 23:37:18 13° 295° (WNW) 23:39:27 437.425
50 SAT 25 Feb 23:39:07 23:42:35 70° 76° (ENE) 23:46:04 437.505
O/OREOS (USA 219) 25 Feb 23:39:27 23:42:15 16° 301° (WNW) 23:45:04 437.305
SRMSAT 25 Feb 23:51:48 23:55:11 15° 173° (S) 23:58:35 437.500
DUCHIFAT 1 26 Feb 00:13:21 00:17:33 58° 285° (WNW) 00:21:43 145.980
AIST 2D 26 Feb 00:15:27 00:18:01 19° 289° (WNW) 00:20:34 435.315
EO-79 26 Feb 00:25:09 00:29:03 35° 288° (WNW) 00:32:56 145.935-145.965
PCSat 26 Feb 00:25:47 00:30:15 25° 53° (NE) 00:34:41 145.827
NO-84 26 Feb 00:39:42 00:43:51 58° 230° (SW) 00:48:11 435.350 FM
JUGNU 26 Feb 00:40:54 00:42:59 12° 192° (SSW) 00:45:05 437.505
NANOSAT C BR1 26 Feb 00:42:05 00:45:34 25° 290° (WNW) 00:49:02 145.865
POLYITAN 1 26 Feb 00:43:21 00:46:42 22° 291° (WNW) 00:50:02 437.675
QB50P2 26 Feb 00:46:35 00:49:39 19° 291° (WNW) 00:52:42 145.880/145.840
DX 1 26 Feb 00:58:15 01:01:37 22° 264° (W) 01:05:02 434.975-435.025
RS-15 26 Feb 01:02:01 01:13:16 38° 44° (NE) 01:24:02 29.354- 29.394
BUGSAT 1 26 Feb 01:07:56 01:11:55 40° 287° (WNW) 01:15:54 437.445
UKube-1 26 Feb 01:08:54 01:12:20 23° 264° (W) 01:15:48 .
